Regional Weather Roundup
Issued by NWS

Home | Current Version | Previous Version | Text Only | Print | Product List | Glossary On
Versions: 1 2 3 4 5 6 7 8 9 10 11 12 13 14 15 16 17 18 19 20 21 22 23 24 25 26 27 28 29 30 31 32 33 34 35 36 37 38 39 40 41 42 43 44 45 46 47 48 49 50
000
ASUS43 KMKX 181621
RWRWI

WISCONSIN REGIONAL WEATHER ROUNDUP
NATIONAL WEATHER SERVICE MILWAUKEE/SULLIVAN WI
1100 AM CDT FRI AUG 18 2017

NOTE: "FAIR" INDICATES FEW OR NO CLOUDS BELOW 12,000 FEET WITH NO
SIGNIFICANT WEATHER AND/OR OBSTRUCTIONS TO VISIBILITY.

WIZ001-002-006>008-014>016-023>028-181700-
NORTHWEST WISCONSIN

CITY           SKY/WX    TMP DP  RH WIND       PRES   REMARKS
SUPERIOR ARPT    N/A     64  60  87 S5        29.85S
ASHLAND        PTSUNNY   66  59  78 NW7       29.85R
HAYWARD        PTSUNNY   66  57  72 N5        29.86F
SIREN          CLOUDY    64  60  88 NW3       29.89R
CUMBERLAND     CLOUDY    64  59  82 NW6       29.89R
RICE LAKE      CLOUDY    67  60  77 W7        29.90R
CHETEK         CLOUDY    68  60  75 NW7       29.88R
LADYSMITH      CLOUDY    67  57  70 NW12      29.88R
EAU CLAIRE     CLOUDY    70  60  70 NW9       29.86R
MENOMONIE      CLOUDY    71  62  72 W7        29.89R
NEW RICHMOND   CLOUDY    67  62  82 NW5       29.90R
OSCEOLA        CLOUDY    66  60  80 CALM      29.92R
$$

WIZ003>005-009-010-017-018-181700-
NORTH CENTRAL WISCONSIN

CITY           SKY/WX    TMP DP  RH WIND       PRES   REMARKS
MANITOWISH WTR CLOUDY    64  62  94 NW12G17   29.84R
ARBOR VITAE    CLOUDY    62  58  86 NW8       29.84R
WOODRUFF       CLOUDY    62  58  86 NW8       29.84R
RHINELANDER    CLOUDY    63  59  87 NW8       29.84R
EAGLE RIVER    CLOUDY    64  55  73 W13G20    29.82R
LAND O LAKES   PTSUNNY   64  56  74 NW10G20   29.83R
PHILLIPS       CLOUDY    63  58  84 NW5       29.85S
TOMAHAWK         N/A     63  56  78 NW7       29.85S
MEDFORD        CLOUDY    65  57  74 N14       29.85F
MERRILL        CLOUDY    64  59  82 NW10G16   29.85R
$$

WIZ029-030-035-036-043>047-181700-
CENTRAL WISCONSIN

CITY           SKY/WX    TMP DP  RH WIND       PRES   REMARKS
WAUSAU         CLOUDY    64  57  78 N7G17     29.83R
MOSINEE        CLOUDY    63  57  82 NW10      29.86R
MARSHFIELD     MOSUNNY   68  57  68 NW13      29.84F
STEVENS POINT  CLOUDY    64  57  80 NW8       29.85S
WAUPACA        CLOUDY    69  59  70 NW12G18   29.83S
WAUTOMA        CLOUDY    69  59  70 NW10      29.84S
WISC RAPIDS    CLOUDY    69  59  70 NW10      29.86S
CAMP DOUGLAS   PTSUNNY   72  61  68 NW12      29.86S
$$

WIZ011>013-019>022-031-037>040-048>050-181700-
NORTHEAST WISCONSIN

CITY           SKY/WX    TMP DP  RH WIND       PRES   REMARKS
ANTIGO         CLOUDY    63  58  83 NW14      29.83S
SHAWANO        CLOUDY    70  58  65 NW12G17   29.80S
OCONTO         CLOUDY    67  58  73 NW9G16    29.77R
STURGEON BAY   CLOUDY    66  59  78 W14       29.77R
GREEN BAY      CLOUDY    69  62  78 NW13      29.79R
MANITOWOC      CLOUDY    69  58  67 NW15      29.79S
APPLETON       CLOUDY    66  55  68 NW12G17   29.81R
CLINTONVILLE   CLOUDY    68  55  64 NW12      29.81S
OSHKOSH        CLOUDY    68  59  73 W14       29.82R
$$

WIZ032>034-041-042-053>061-181700-
SOUTHWEST WISCONSIN

CITY           SKY/WX    TMP DP  RH WIND       PRES   REMARKS
LA CROSSE      MOSUNNY   74  60  61 NW12      29.90R
SPARTA         SUNNY     71  59  65 NW10G17   29.88R
VIROQUA        MOSUNNY   69  61  75 NW12      29.92R
BOSCOBEL       MOSUNNY   74  60  61 W7        29.90R
PRAIRIE DU CHI PTSUNNY   71  57  61 CALM      29.91R
PLATTEVILLE    SUNNY     71  63  75 W7        29.92R
$$

WIZ056-057-062-063-064-067-068-181700-
SOUTH CENTRAL WISCONSIN

CITY           SKY/WX    TMP DP  RH WIND       PRES   REMARKS
REEDSBURG      MOSUNNY   71  59  66 W8        29.86S
BARABOO/DELLS  MOSUNNY   69  57  65 NW8       29.86F
LONE ROCK      MOSUNNY   71  61  70 VRB6      29.87S
MINERAL POINT  SUNNY     72  63  73 NW6       29.90R
MADISON        PTSUNNY   71  59  65 N8        29.86S
MIDDLETON      MOSUNNY   72  59  62 NW12G20   29.87S
WATERTOWN      CLOUDY    69  60  75 W9        29.84F
MONROE         MOSUNNY   70  59  68 NW9       29.89R
JANESVILLE     PTSUNNY   73  61  64 NW12G17   29.86S
$$

WIZ051-052-058>065-066-070>072-181700-
SOUTHEAST WISCONSIN

CITY           SKY/WX    TMP DP  RH WIND       PRES   REMARKS
MILWAUKEE      PTSUNNY   72  59  63 W13       29.84R
WAUKESHA       CLOUDY    66  57  72 W15G21    29.86R
MILWAUKEE/TIMM CLOUDY    68  55  64 W12       29.85R
RACINE         CLOUDY    70  62  76 VRB7      29.86S
KENOSHA        CLOUDY    70  59  68 W13G21    29.86R
FOND DU LAC    CLOUDY    68  57  68 W16       29.84R
SHEBOYGAN      CLOUDY    69  61  75 NW10G18   29.81S
WEST BEND      CLOUDY    66  59  77 W12       29.83F
JUNEAU         CLOUDY    67  57  72 NW8       29.85F
$$

LSZ147-162-181700-
LAKE SUPERIOR

STATION/POSITION TIME  TEMP    WIND        PRES    WAVE
                       AIR SEA DIR/SP/G            HT/PER
                 (UTC) (F)     (DEG/KT/KT) (MB)    (FT/S)
W MID LAKE BUOY  1550   61 60  280/  8/ 10 1008.8R   2/ 5
DEVILS ISLAND    1600   62     250/  7/ 10 1010.2R
SAXON HARBOR     1530   65     310/  8/ 12 1010.2R
$$

LMZ867-665-643>646-181700-
LAKE MICHIGAN

STATION/POSITION TIME  TEMP    WIND        PRES    WAVE
                       AIR SEA DIR/SP/G            HT/PER
                 (UTC) (F)     (DEG/KT/KT) (MB)    (FT/S)
S GREEN BAY BUOY 1600   68 71  310/ 17/ 21 1008.0
N MID LAKE BUOY  1550   65 67  280/ 16/ 19 1006.0R   4/ 5
NORTHPORT PIER   1540   67     310/ 12/ 16 1006.8R
KEWAUNEE LAKESHO 1554   69     300/  9/ 16 1007.4R
SHEBOYGAN LAKESH 1600   68     290/ 11/ 13 1008.9R
PORT WASHINGTON  1540   69     310/ 10/ 14 1010.5R
ATWATER BUOY     1539   69 70  280/ 16/ 21 1010.5R
MILWAUKEE LAKESH 1600   69     290/ 11/ 14   N/A
S MID LAKE BUOY  1550   69 71  310/ 17/ 19 1010.4R   4/ 5
KENOSHA   LAKESH 1600   70     290/ 11/ 18 1010.8
$$

TC  - TEMPERATURE IN CELSIUS
VSB - VISIBILITY IN STATUTE MILES
WCI - WIND CHILL INDEX
HX  - HEAT INDEX





USA.gov is the U.S. government's official web portal to all federal, state and local government web resources and services.